Home > Weather > Baden-Baden > Past weeks

Flag for Germany Past Weather in Baden-Baden, Baden-Württemberg, Germany — Yesterday and Last 2 Weeks

Now
79 °F

Passing clouds.


Feels Like: 81 °F
Forecast: 59 / 87 °F
Wind: 5 mph from Northwest

Location: Karlsruhe - Baden Wurttemberg

Current Time: Aug 24, 2016 at 12:33:30 PM

Latest Report: Aug 24, 2016 at 11:50 AM


Visibility: N/A

Pressure: 30.18 "Hg

Humidity: 61%

Dew Point: 64 °F

Location of Baden-BadenLocation

Past Weather in Baden-Baden — Graph

°F

Baden-Baden Temperature Yesterday

Maximum temperature yesterday: 82 °F (at 2:50 PM)
Minimum temperature yesterday: 54 °F (at 5:20 AM)
Average temperature yesterday: 71 °F

High & Low Weather Summary for the Past Weeks

 TemperatureHumidityPressure
High84 °F (Aug 14, 5:20 PM)100% (Aug 10, 10:20 PM)30.39 "Hg (Aug 10, 10:20 PM)
Low45 °F (Aug 11, 5:20 AM)35% (Aug 14, 6:50 PM)29.80 "Hg (Aug 18, 6:20 AM)
Average67 °F72%30.11 "Hg
* Reported Aug 9 10:20 AM — Aug 24 10:50 AM, Baden-Baden, Weather by CustomWeather, © 2016

Note: Actual official high and low records may vary slightly from our data, if they occured in-between our weather recording intervals... More about our weather records

Advertising

Baden-Baden Weather History for the Previous 24 Hours

Scroll right to see more
 ConditionsComfort  
Time TempWeatherWind HumidityBarometerVisibility
10:50 AM
Wed, Aug 24
73 °FSunny.3 mph69%30.21 "Hg10 mi
10:20 AM72 °FSunny.3 mph69%30.21 "Hg10 mi
9:50 AM70 °FSunny.3 mph73%30.21 "Hg10 mi
9:20 AM68 °FSunny.3 mph78%30.21 "Hg10 mi
8:50 AM66 °FSunny.3 mph83%30.21 "Hg10 mi
8:20 AM64 °FPassing clouds.5 mph88%30.21 "HgN/A
7:50 AM61 °FSunny.2 mph100%30.21 "Hg10 mi
7:20 AM57 °FFog.No wind100%30.21 "HgN/A
6:50 AM57 °FLight fog.2 mph100%30.18 "HgN/A
6:20 AM59 °FLight fog.1 mph94%30.18 "HgN/A
5:50 AM59 °FFog.No wind94%30.18 "HgN/A
5:20 AM59 °FFog.No wind100%30.18 "HgN/A
4:50 AM61 °FClear.2 mph94%30.18 "Hg10 mi
11:20 PM
Tue, Aug 23
66 °FClear.7 mph83%30.24 "Hg10 mi
10:50 PM68 °FClear.8 mph78%30.24 "Hg10 mi
10:20 PM70 °FClear.5 mph73%30.24 "Hg10 mi
9:50 PM73 °FClear.2 mph69%30.24 "Hg10 mi
9:20 PM72 °FSunny.12 mph73%30.24 "Hg10 mi
8:50 PM75 °FSunny.12 mph65%30.24 "Hg10 mi
8:20 PM77 °FSunny.12 mph61%30.21 "Hg10 mi
7:50 PM79 °FPassing clouds.10 mph58%30.21 "HgN/A
7:20 PM81 °FSunny.9 mph51%30.21 "Hg10 mi
6:50 PM81 °FSunny.9 mph51%30.24 "Hg10 mi
6:20 PM82 °FSunny.10 mph48%30.24 "Hg10 mi
5:50 PM82 °FSunny.9 mph48%30.24 "Hg10 mi
5:20 PM82 °FSunny.10 mph45%30.24 "Hg10 mi
4:50 PM82 °FPassing clouds.10 mph48%30.24 "HgN/A
4:20 PM82 °FSunny.12 mph45%30.24 "Hg10 mi
3:50 PM82 °FSunny.10 mph48%30.27 "Hg10 mi
3:20 PM82 °FPassing clouds.10 mph48%30.27 "HgN/A
2:50 PM82 °FPassing clouds.9 mph48%30.27 "HgN/A
2:20 PM81 °FPassing clouds.10 mph48%30.27 "HgN/A
1:50 PM81 °FPassing clouds.9 mph48%30.30 "HgN/A
1:20 PM79 °FPassing clouds.8 mph54%30.30 "HgN/A
12:50 PM77 °FPassing clouds.6 mph61%30.30 "HgN/A
12:20 PM75 °FPassing clouds.6 mph65%30.33 "HgN/A
Weather by CustomWeather, © 2016

See weather overviewHow to use our weather pages